This demonstration page uses our WeatherBlox Daily Observations layout. Learn more.

41.55636, -103.73856

Hourly Observations for May 7, 2016

Temp ( °F °C ) Dew Point ( °F °C ) Humidity (%) Winds ( mph kmh ) Pressure ( in mb ) Visibility ( mi km ) Precip ( " mm )
12:09 am 00:09 Cloudy with Light Thunderstorms 59 15 50 10 72 72 N 9 15 29.85 1011 10 16.0934 0 0.0254
12:45 am 00:45 Cloudy with Nearby Thunderstorms 59 15 50 10 72 72 ENE 28 44 29.88 1012 10 16.0934 0.02 0.508
12:53 am 00:53 Cloudy with Nearby Thunderstorms 59 15 50 10 72 72 NE 28 44 29.88 1012 9 14.48406 0.02 0.508
1:16 am 01:16 Cloudy with Rain 58 14.4 51 10.6 78 78 SE 13 20 29.91 1013 6 9.65604 0.04 1.016
1:29 am 01:29 Cloudy with Nearby Thunderstorms 57 13.9 51 10.6 81 81 ENE 36 57 29.85 1011 4 6.43736 0.08 2.032
1:37 am 01:37 Cloudy with Nearby Thunderstorms 56 13.3 51 10.6 84 84 ENE 30 48 29.83 1010 5 8.0467 0.09 2.286
1:44 am 01:44 Cloudy with Light Rain 57 14 52 11 82 82 NE 32 52 29.83 1010 5 8.0467 0 0
1:53 am 01:53 Mostly Cloudy with Light Rain 57 13.9 50 10 78 78 ENE 32 52 29.78 1008 10 16.0934 0.09 2.286
2:53 am 02:53 Clear 56 13.3 49 9.4 77 77 NE 29 46 29.79 1009 10 16.0934 0.01 0.254
3:53 am 03:53 Clear 54 12.2 48 8.9 80 80 NE 28 44 29.79 1009 10 16.0934 0 0
4:53 am 04:53 Clear 53 11.7 48 8.9 83 83 NE 29 46 29.83 1010 10 16.0934 0 0
5:53 am 05:53 Sunny 52 11.1 47 8.3 83 83 NE 26 43 29.86 1011 10 16.0934 0 0
6:53 am 06:53 Sunny 51 10.6 44 6.7 77 77 NE 25 41 29.89 1012 10 16.0934 0 0
7:53 am 07:53 Sunny 52 11.1 43 6.1 72 72 ENE 26 43 29.9 1013 8 12.87472 0 0
8:53 am 08:53 Hazy 54 12.2 38 3.3 55 55 NE 25 41 29.88 1012 4 6.43736 0 0
9:53 am 09:53 Cloudy with Haze 53 11.7 36 2.2 52 52 E 21 33 29.92 1013 4 6.43736 0 0
10:53 am 10:53 Mostly Cloudy with Haze 53 11.7 32 0 45 45 ENE 28 44 29.88 1012 6 9.65604 0 0
11:06 am 11:06 Mostly Cloudy with Haze 52 11 36 2 54 54 E 13 20 29.91 1013 6 9.65604 0 0
11:53 am 11:53 Mostly Sunny 56 13.3 36 2.2 47 47 E 13 20 29.85 1011 7 11.26538 0 0
12:40 pm 12:40 Mostly Cloudy 57 14 37 3 48 48 E 16 26 29.83 1010 7 11.26538 0 0
12:53 pm 12:53 Mostly Sunny 61 16.1 40 4.4 46 46 E 22 35 29.83 1010 8 12.87472 0 0
1:53 pm 13:53 Sunny 65 18.3 43 6.1 45 45 ENE 22 35 29.8 1009 8 12.87472 0 0.0254
2:53 pm 14:53 Sunny 63 17.2 43 6.1 48 48 E 30 48 29.77 1008 7 11.26538 0 0
3:53 pm 15:53 Sunny 63 17.2 42 5.6 47 47 E 28 44 29.75 1007 8 12.87472 0 0
4:53 pm 16:53 Cloudy 61 16.1 40 4.4 46 46 E 32 52 29.78 1009 7 11.26538 0 0
5:53 pm 17:53 Mostly Cloudy with Nearby Thunderstorms 60 15.6 41 5 50 50 ESE 17 28 29.77 1008 6 9.65604 0 0.0254
6:16 pm 18:16 Cloudy with Nearby Thunderstorms 52 11 43 6 72 72 WSW 16 26 29.83 1010 4 6.43736 0 0
6:34 pm 18:34 Cloudy with Heavy Thunderstorms 48 9 45 7 87 87 SSW 15 24 29.91 1013 2.5 4.02335 0 0
6:50 pm 18:50 Cloudy with Heavy Thunderstorms 48 9 45 7 87 87 SSW 14 22 29.91 1013 3 4.82802 0 0
6:53 pm 18:53 Cloudy with Heavy Thunderstorms 49 9.4 46 7.8 90 90 SW 13 20 29.86 1011 2.5 4.02335 0.21 5.334
7:11 pm 19:11 Cloudy with Rain 49 9.4 46 7.8 90 90 SW 8 13 29.88 1012 3 4.82802 0.1 2.54
7:48 pm 19:48 Cloudy with Heavy Rain 48 9 45 7 87 87 W 3 6 29.91 1013 2.5 4.02335 0 0
7:53 pm 19:53 Cloudy with Nearby Thunderstorms 48 8.9 45 7.2 89 89 Calm 29.9 1013 3 4.82802 0.29 7.366
8:14 pm 20:14 Cloudy with Light Rain 48 9 45 7 87 87 NNE 5 7 29.91 1013 7 11.26538 0 0
8:53 pm 20:53 Cloudy with Light Rain 48 8.9 45 7.2 89 89 ENE 8 13 29.86 1011 10 16.0934 0.11 2.794
9:22 pm 21:22 Cloudy with Rain 50 10 43 6 76 76 SE 10 17 29.85 1011 6 9.65604 0 0
9:53 pm 21:53 Cloudy with Light Rain 49 9.4 44 6.7 83 83 ENE 8 13 29.83 1010 10 16.0934 0.11 2.794
10:36 pm 22:36 Cloudy with Light Rain 50 10 43 6 76 76 NNE 18 30 29.74 1007 10 16.0934 0 0
10:53 pm 22:53 Cloudy 50 10 43 6.1 77 77 ENE 13 20 29.76 1008 10 16.0934 0.04 1.016
11:53 pm 23:53 Clear 48 8.9 43 6.1 83 83 SSE 5 7 29.8 1009 10 16.0934 0 0

Powered by AerisWeather